SB KEPS @ AMSAT $ORB10147.O Orbital Elements 10147.OSCAR
HR AMSAT ORBITAL ELEMENTS FOR OSCAR SATELLITES FROM WA5QGD FORT WORTH,TX May 27, 2010 Send Subscribe/unsubscribe to KEPS at http://www.amsat.org/mailman/listinfo/keps BID: ORB10147.O TO ALL RADIO AMATEURS BT
Satellite: AO-07 Catalog number: 07530 Epoch time: 10146.57516214 Element set: 0787 Inclination: 101.4006 deg RA of node: 163.2801 deg Eccentricity: 0.0011922 Arg of perigee: 318.5385 deg Mean anomaly: 041.4782 deg Mean motion: 12.53578421 rev/day Decay rate: -2.7e-07 rev/day^2 Epoch rev: 62574 Checksum: 277
Satellite: FO-29 Catalog number: 24278 Epoch time: 10146.95416303 Element set: 0320 Inclination: 098.5134 deg RA of node: 339.0217 deg Eccentricity: 0.0350606 Arg of perigee: 178.7897 deg Mean anomaly: 181.4174 deg Mean motion: 13.52950609 rev/day Decay rate: -2.3e-07 rev/day^2 Epoch rev: 68023 Checksum: 306
Satellite: SO-33 Catalog number: 25509 Epoch time: 10147.64132659 Element set: 720 Inclination: 031.4306 deg RA of node: 264.7011 deg Eccentricity: 0.0353540 Arg of perigee: 110.3283 deg Mean anomaly: 253.5688 deg Mean motion: 14.28305200 rev/day Decay rate: -.00000000 rev/day^2 Epoch rev: 60511 Checksum: 240
Satellite: RS-22 Catalog number: 27939 Epoch time: 10147.68008167 Element set: 217 Inclination: 097.8958 deg RA of node: 014.0345 deg Eccentricity: 0.0014602 Arg of perigee: 122.3487 deg Mean anomaly: 237.9125 deg Mean motion: 14.63419709 rev/day Decay rate: 5.0e-07 rev/day^2 Epoch rev: 35595 Checksum: 312
Satellite: VO-52 Catalog number: 28650 Epoch time: 10147.60451190 Element set: 512 Inclination: 097.6939 deg RA of node: 201.8397 deg Eccentricity: 0.0026828 Arg of perigee: 346.8452 deg Mean anomaly: 013.2054 deg Mean motion: 14.81750495 rev/day Decay rate: 3.44e-06 rev/day^2 Epoch rev: 27364 Checksum: 308
Satellite: SO-67 Catalog number: 35870 Epoch time: 10147.90094907 Element set: 764 Inclination: 097.3334 deg RA of node: 197.5716 deg Eccentricity: 0.0003682 Arg of perigee: 140.2977 deg Mean anomaly: 220.2856 deg Mean motion: 15.20893794 rev/day Decay rate: 4.96e-06 rev/day^2 Epoch rev: 3837 Checksum: 341
Satellite: HO-68 Catalog number: 36122 Epoch time: 10147.64996210 Element set: 341 Inclination: 100.4692 deg RA of node: 208.2853 deg Eccentricity: 0.0007804 Arg of perigee: 024.8659 deg Mean anomaly: 335.2832 deg Mean motion: 13.16280845 rev/day Decay rate: -4.5e-07 rev/day^2 Epoch rev: 2151 Checksum: 283
/EX SB KEPS @ AMSAT $ORB10147.D Orbital Elements 10147.MICROS
HR AMSAT ORBITAL ELEMENTS FOR THE MICROSATS FROM WA5QGD FORT WORTH,TX May 27, 2010 Send Subscribe/unsubscribe to KEPS at http://www.amsat.org/mailman/listinfo/keps BID: ORB10147.D TO ALL RADIO AMATEURS BT
Satellite: UO-11 Catalog number: 14781 Epoch time: 10147.60186002 Element set: 250 Inclination: 098.0578 deg RA of node: 199.2794 deg Eccentricity: 0.0008220 Arg of perigee: 310.0902 deg Mean anomaly: 049.9575 deg Mean motion: 14.79804318 rev/day Decay rate: 1.66e-06 rev/day^2 Epoch rev: 40876 Checksum: 303
Satellite: AO-16 Catalog number: 20439 Epoch time: 10146.80584693 Element set: 904 Inclination: 098.3307 deg RA of node: 105.5554 deg Eccentricity: 0.0010178 Arg of perigee: 226.3818 deg Mean anomaly: 133.6524 deg Mean motion: 14.31861982 rev/day Decay rate: 1.8e-07 rev/day^2 Epoch rev: 6232 Checksum: 295
Satellite: LO-19 Catalog number: 20442 Epoch time: 10146.73713610 Element set: 0816 Inclination: 098.2902 deg RA of node: 111.3778 deg Eccentricity: 0.0011156 Arg of perigee: 222.0914 deg Mean anomaly: 137.9413 deg Mean motion: 14.32093413 rev/day Decay rate: 5.0e-08 rev/day^2 Epoch rev: 06248 Checksum: 264
Satellite: AO-27 Catalog number: 22825 Epoch time: 10147.78184873 Element set: 539 Inclination: 098.4844 deg RA of node: 096.2610 deg Eccentricity: 0.0007997 Arg of perigee: 335.9581 deg Mean anomaly: 024.1230 deg Mean motion: 14.29298155 rev/day Decay rate: 3.8e-07 rev/day^2 Epoch rev: 86913 Checksum: 338
Satellite: IO-26 Catalog number: 22826 Epoch time: 10147.64098370 Element set: 276 Inclination: 098.4781 deg RA of node: 096.7327 deg Eccentricity: 0.0008562 Arg of perigee: 331.1546 deg Mean anomaly: 028.9163 deg Mean motion: 14.29553857 rev/day Decay rate: -.00000000 rev/day^2 Epoch rev: 86922 Checksum: 317
Satellite: GO-32 Catalog number: 25397 Epoch time: 10146.72807679 Element set: 194 Inclination: 098.3121 deg RA of node: 155.3606 deg Eccentricity: 0.0001002 Arg of perigee: 022.2983 deg Mean anomaly: 337.8244 deg Mean motion: 14.23177723 rev/day Decay rate: -1.38e-06 rev/day^2 Epoch rev: 61699 Checksum: 304
Satellite: NO-44 Catalog number: 26931 Epoch time: 10146.86611087 Element set: 0471 Inclination: 067.0520 deg RA of node: 258.9050 deg Eccentricity: 0.0005633 Arg of perigee: 261.8139 deg Mean anomaly: 098.2302 deg Mean motion: 14.29597924 rev/day Decay rate: -5.1e-07 rev/day^2 Epoch rev: 45170 Checksum: 297
Satellite: SO-50 Catalog number: 27607 Epoch time: 10146.73718044 Element set: 0184 Inclination: 064.5589 deg RA of node: 061.6686 deg Eccentricity: 0.0034500 Arg of perigee: 087.4105 deg Mean anomaly: 273.0977 deg Mean motion: 14.71541421 rev/day Decay rate: 1.09e-06 rev/day^2 Epoch rev: 39922 Checksum: 303
Satellite: CO-55 Catalog number: 27844 Epoch time: 10146.54443029 Element set: 0855 Inclination: 098.7086 deg RA of node: 155.8296 deg Eccentricity: 0.0008855 Arg of perigee: 232.7736 deg Mean anomaly: 127.2639 deg Mean motion: 14.20708496 rev/day Decay rate: 5.7e-07 rev/day^2 Epoch rev: 35801 Checksum: 337
Satellite: CO-57 Catalog number: 27848 Epoch time: 10146.50041911 Element set: 0805 Inclination: 098.7128 deg RA of node: 154.8761 deg Eccentricity: 0.0008763 Arg of perigee: 237.6902 deg Mean anomaly: 122.3440 deg Mean motion: 14.20500558 rev/day Decay rate: 2.6e-07 rev/day^2 Epoch rev: 35796 Checksum: 302
Satellite: AO-51 Catalog number: 28375 Epoch time: 10147.52158719 Element set: 685 Inclination: 098.0618 deg RA of node: 142.1965 deg Eccentricity: 0.0083584 Arg of perigee: 159.3015 deg Mean anomaly: 201.1591 deg Mean motion: 14.40685632 rev/day Decay rate: 2.8e-07 rev/day^2 Epoch rev: 31053 Checksum: 304
Satellite: GENESAT1 Catalog number: 29655 Epoch time: 10147.43874677 Element set: 72 Inclination: 040.0172 deg RA of node: 163.9357 deg Eccentricity: 0.0007899 Arg of perigee: 176.7222 deg Mean anomaly: 183.3655 deg Mean motion: 15.89355918 rev/day Decay rate: 8.2105e-04 rev/day^2 Epoch rev: 19668 Checksum: 342
Satellite: CP3 Catalog number: 31129 Epoch time: 10146.78801620 Element set: 586 Inclination: 097.9431 deg RA of node: 187.5016 deg Eccentricity: 0.0100919 Arg of perigee: 300.7106 deg Mean anomaly: 058.4169 deg Mean motion: 14.52256444 rev/day Decay rate: -5.2e-07 rev/day^2 Epoch rev: 16475 Checksum: 291
Satellite: CO-65 Catalog number: 32785 Epoch time: 10147.09432964 Element set: 690 Inclination: 097.8984 deg RA of node: 212.3111 deg Eccentricity: 0.0015007 Arg of perigee: 358.1213 deg Mean anomaly: 001.9951 deg Mean motion: 14.81656591 rev/day Decay rate: 4.87e-06 rev/day^2 Epoch rev: 11236 Checksum: 306
Satellite: KKS-1 Catalog number: 33493 Epoch time: 10147.85030078 Element set: 519 Inclination: 098.0828 deg RA of node: 267.1703 deg Eccentricity: 0.0019424 Arg of perigee: 203.2794 deg Mean anomaly: 156.7539 deg Mean motion: 14.80990181 rev/day Decay rate: 3.93e-06 rev/day^2 Epoch rev: 7247 Checksum: 312
Satellite: SOHLA-1 Catalog number: 33496 Epoch time: 10146.71208624 Element set: 0115 Inclination: 098.0553 deg RA of node: 256.0663 deg Eccentricity: 0.0005449 Arg of perigee: 273.3957 deg Mean anomaly: 086.6638 deg Mean motion: 14.69494496 rev/day Decay rate: 7.8e-07 rev/day^2 Epoch rev: 07172 Checksum: 327
/EX SB KEPS @ AMSAT $ORB10147.W Orbital Elements 10147.WEATHER
HR AMSAT ORBITAL ELEMENTS FOR WEATHER SATELLITES FROM WA5QGD FORT WORTH,TX May 27, 2010 Send Subscribe/unsubscribe to KEPS at http://www.amsat.org/mailman/listinfo/keps BID: ORB10147.W TO ALL RADIO AMATEURS BT
Satellite: NOAA-10 Catalog number: 16969 Epoch time: 10147.54463120 Element set: 78 Inclination: 098.6578 deg RA of node: 176.7045 deg Eccentricity: 0.0011231 Arg of perigee: 272.3869 deg Mean anomaly: 087.6046 deg Mean motion: 14.27416724 rev/day Decay rate: -4.2e-07 rev/day^2 Epoch rev: 23263 Checksum: 306
Satellite: NOAA-11 Catalog number: 19531 Epoch time: 10147.30877478 Element set: 90 Inclination: 098.7691 deg RA of node: 236.6872 deg Eccentricity: 0.0011047 Arg of perigee: 204.3247 deg Mean anomaly: 155.7450 deg Mean motion: 14.14926390 rev/day Decay rate: 2.3e-07 rev/day^2 Epoch rev: 11818 Checksum: 297
Satellite: NOAA-12 Catalog number: 21263 Epoch time: 10147.50647509 Element set: 577 Inclination: 098.7647 deg RA of node: 160.6682 deg Eccentricity: 0.0011535 Arg of perigee: 224.0569 deg Mean anomaly: 135.9698 deg Mean motion: 14.25634182 rev/day Decay rate: 2.4e-07 rev/day^2 Epoch rev: 98945 Checksum: 327
Satellite: MET-3/5 Catalog number: 21655 Epoch time: 10146.90895265 Element set: 0822 Inclination: 082.5568 deg RA of node: 323.6705 deg Eccentricity: 0.0014634 Arg of perigee: 046.3838 deg Mean anomaly: 313.8517 deg Mean motion: 13.17025370 rev/day Decay rate: 5.1e-07 rev/day^2 Epoch rev: 90287 Checksum: 305
Satellite: MET-2/21 Catalog number: 22782 Epoch time: 10146.81447325 Element set: 786 Inclination: 082.5463 deg RA of node: 269.3945 deg Eccentricity: 0.0023905 Arg of perigee: 101.9513 deg Mean anomaly: 258.4332 deg Mean motion: 13.83645716 rev/day Decay rate: 6.8e-07 rev/day^2 Epoch rev: 84512 Checksum: 314
Satellite: OKEAN-4 Catalog number: 23317 Epoch time: 10147.67258392 Element set: 242 Inclination: 082.5418 deg RA of node: 013.0104 deg Eccentricity: 0.0020952 Arg of perigee: 313.5844 deg Mean anomaly: 046.3643 deg Mean motion: 14.82819140 rev/day Decay rate: 2.37e-06 rev/day^2 Epoch rev: 84341 Checksum: 272
